DW6558 Weather Reports


time (UTC)temp
F
wind
direction
speed
knots
gust
knots
rain 1hr
in
rain 24hr
in
rain mn
in
humidity
%
barometer
mb
20260506182151 44 310 6.1 12.2 0.00 0.00 0.00 55 933.5
20260506181649 44 326 2.6 2.6 0.00 0.00 0.00 50 933.7
20260506181146 43 353 9.6 11.3 0.00 0.00 0.00 48 933.6
20260506180643 43 316 4.3 5.2 0.00 0.00 0.00 52 933.4
20260506180139 42 359 4.3 6.1 0.00 0.00 0.00 52 933.5
20260506175636 43 123 2.6 2.6 0.00 0.00 0.00 53 933.2
20260506175132 40 297 2.6 2.6 0.00 0.00 0.00 58 933.2
20260506174625 40 334 4.3 6.1 0.00 0.00 0.00 60 932.8
20260506174121 40 352 4.3 7.0 0.00 0.00 0.00 63 933.2
20260506173619 40 59 0.9 5.2 0.00 0.00 0.00 56 933.1
20260506173115 43 31 3.5 5.2 0.00 0.00 0.00 57 933.2
20260506172613 42 132 2.6 5.2 0.00 0.00 0.00 60 933.2
20260506172109 42 72 4.3 6.1 0.00 0.00 0.00 59 933.1
20260506171607 41 163 2.6 4.3 0.00 0.00 0.00 58 933.2
20260506171104 41 75 1.7 4.3 0.00 0.00 0.00 58 932.9
20260506170601 39 106 0.9 7.0 0.00 0.00 0.00 62 932.9
20260506170059 40 83 2.6 6.1 0.00 0.00 0.00 63 933.1
20260506165557 40 130 4.3 6.1 0.00 0.00 0.00 66 933.1
20260506165053 39 87 2.6 2.6 0.00 0.00 0.00 66 932.7
20260506164550 39 96 5.2 6.1 0.00 0.00 0.00 66 932.6
20260506164047 38 68 2.6 5.2 0.00 0.00 0.00 68 932.7
20260506163543 38 108 3.5 6.1 0.00 0.00 0.00 69 932.7
20260506163039 38 124 1.7 4.3 0.00 0.00 0.00 69 932.8
20260506162535 38 79 4.3 6.1 0.00 0.00 0.00 69 932.6
20260506162033 37 80 2.6 4.3 0.00 0.00 0.00 70 932.5
20260506161530 38 60 1.7 4.3 0.00 0.00 0.00 68 932.8
20260506161027 37 51 0.9 6.1 0.00 0.00 0.00 69 932.5
20260506160525 36 99 1.7 2.6 0.00 0.00 0.00 70 932.8
20260506160022 38 68 0.0 0.9 0.00 0.00 0.00 71 932.4
20260506155520 36 87 1.7 4.3 0.00 0.00 0.00 74 932.5
20260506153651 35 75 2.6 4.3 0.00 0.00 0.00 77 932.5
20260506153149 34 56 1.7 2.6 0.00 0.00 0.00 77 932.5
20260506152645 34 77 2.6 4.3 0.00 0.00 0.00 78 932.6
20260506152143 33 47 1.7 4.3 0.00 0.00 0.00 78 932.9
20260506151641 34 92 2.6 2.6 0.00 0.00 0.00 77 932.6
20260506151138 33 123 2.6 4.3 0.00 0.00 0.00 78 932.5
20260506150635 34 77 1.7 4.3 0.00 0.00 0.00 79 932.7
20260506150132 34 103 2.6 5.2 0.00 0.00 0.00 79 933.1
20260506145629 34 87 4.3 5.2 0.00 0.00 0.00 80 933.1
20260506145125 34 90 2.6 5.2 0.00 0.00 0.00 80 933.3
20260506144623 33 122 5.2 7.0 0.00 0.00 0.00 80 933.5
20260506144119 33 59 3.5 6.1 0.00 0.00 0.00 81 933.5
20260506143617 33 102 3.5 7.0 0.00 0.00 0.00 81 933.9
20260506143115 33 112 4.3 5.2 0.00 0.00 0.00 82 934.1
20260506142613 32 118 2.6 5.2 0.00 0.00 0.00 83 934.3
20260506142111 32 97 2.6 4.3 0.00 0.00 0.00 83 934.1
20260506141608 32 111 4.3 5.2 0.00 0.00 0.00 83 933.7
20260506141107 32 107 2.6 4.3 0.00 0.00 0.00 84 932.9
20260506140604 32 105 3.5 5.2 0.00 0.00 0.00 85 932.1
20260506140101 31 111 2.6 5.2 0.00 0.00 0.00 86 931.3
20260506135557 31 90 7.0 8.7 0.00 0.00 0.00 86 931.5
20260506135054 31 101 4.3 6.1 0.00 0.00 0.00 87 931.6
20260506134550 31 87 6.1 7.0 0.00 0.00 0.00 87 931.7
20260506134046 31 107 5.2 7.0 0.00 0.00 0.00 87 931.2
20260506133544 30 71 4.3 6.1 0.00 0.00 0.00 87 931.1
20260506133041 30 78 4.3 8.7 0.00 0.00 0.00 87 931.1
20260506132538 30 74 3.5 7.8 0.00 0.00 0.00 87 931.0
20260506132035 30 95 6.1 7.8 0.00 0.00 0.00 87 931.0
20260506131532 30 108 4.3 7.8 0.00 0.00 0.00 87 930.9
20260506131028 30 122 4.3 7.0 0.00 0.00 0.00 87 930.7
20260506130525 30 109 3.5 7.8 0.00 0.00 0.00 87 930.8
20260506130023 30 91 6.1 8.7 0.00 0.00 0.00 87 930.3
20260506125521 30 90 7.8 8.7 0.00 0.00 0.00 88 930.8
20260506125018 30 112 6.1 8.7 0.00 0.00 0.00 88 930.5
20260506124516 30 92 5.2 7.8 0.00 0.00 0.00 89 930.4
20260506124014 30 110 3.5 6.1 0.00 0.00 0.00 89 930.3
20260506123512 30 79 3.5 6.1 0.00 0.00 0.00 89 930.5
20260506123009 30 65 4.3 7.0 0.00 0.00 0.00 89 930.3
20260506122506 29 101 6.1 7.0 0.00 0.00 0.00 89 930.2
20260506122004 29 87 2.6 7.8 0.00 0.00 0.00 90 930.0
20260506121501 28 72 5.2 6.1 0.00 0.00 0.00 91 929.9
20260506120957 27 95 5.2 7.0 0.00 0.00 0.00 91 930.0
20260506120455 27 71 0.0 0.0 0.00 0.00 0.00 91 930.0
20260506115952 27 82 1.7 4.3 0.00 0.00 0.00 91 930.1
20260506115450 27 76 2.6 5.2 0.00 0.00 0.00 91 929.7
20260506114948 27 78 2.6 4.3 0.00 0.00 0.00 91 929.9
20260506114445 27 71 3.5 5.2 0.00 0.00 0.00 91 929.6
20260506113944 27 62 2.6 5.2 0.00 0.00 0.00 91 929.9
20260506113442 27 69 1.7 4.3 0.00 0.00 0.00 90 929.7
20260506112937 27 63 0.9 1.7 0.00 0.00 0.00 90 929.7
20260506112435 27 67 0.9 2.6 0.00 0.00 0.00 90 929.5
20260506111932 28 81 3.5 4.3 0.00 0.00 0.00 89 929.6
20260506111430 28 63 0.0 2.6 0.00 0.00 0.00 89 929.5
20260506110927 29 46 1.7 2.6 0.00 0.00 0.00 89 929.3
20260506110425 29 34 0.0 1.7 0.00 0.00 0.00 89 929.3
20260506105921 29 37 1.7 5.2 0.00 0.00 0.00 88 929.3
20260506105418 29 39 2.6 7.0 0.00 0.00 0.00 88 929.6
20260506104915 29 60 3.5 7.0 0.00 0.00 0.00 88 929.2
20260506104413 29 56 3.5 7.0 0.00 0.00 0.00 88 929.3
20260506103911 29 89 5.2 7.8 0.00 0.00 0.00 87 929.5
20260506103408 29 61 5.2 11.3 0.00 0.00 0.00 88 929.3
20260506102905 29 72 7.8 9.6 0.00 0.00 0.00 88 929.4
20260506102404 29 65 2.6 5.2 0.00 0.00 0.00 88 929.3
20260506101901 30 61 0.0 2.6 0.00 0.00 0.00 87 929.1
20260506101357 30 61 2.6 4.3 0.00 0.00 0.00 87 929.2
20260506100854 30 114 4.3 7.0 0.00 0.00 0.00 87 929.1
20260506100353 30 109 5.2 7.8 0.00 0.00 0.00 87 929.2
20260506095850 30 118 4.3 7.8 0.00 0.00 0.00 87 929.4
20260506095348 30 61 0.0 0.0 0.00 0.00 0.00 88 929.2
20260506094844 31 74 0.0 1.7 0.00 0.00 0.00 88 929.1
20260506094343 31 69 2.6 5.2 0.00 0.00 0.00 87 929.3
20260506093841 31 61 1.7 6.1 0.00 0.00 0.00 87 929.1
20260506093338 31 137 7.8 9.6 0.00 0.00 0.00 88 929.2
20260506092835 31 138 7.8 7.8 0.00 0.00 0.00 89 929.2
20260506092334 31 106 5.2 13.0 0.00 0.00 0.00 89 929.3
20260506091830 30 98 8.7 12.2 0.00 0.00 0.00 91 929.6
20260506091328 30 87 7.0 11.3 0.00 0.00 0.00 91 929.5
20260506090825 30 121 9.6 14.8 0.00 0.00 0.00 92 929.4
20260506090322 30 36 7.0 9.6 0.00 0.00 0.00 92 929.5
20260506085819 30 67 5.2 9.6 0.00 0.00 0.00 92 929.6
20260506085315 30 80 5.2 9.6 0.00 0.00 0.00 93 929.5
20260506084811 31 126 7.8 12.2 0.00 0.00 0.00 93 929.5
20260506084308 30 95 6.1 13.0 0.00 0.00 0.00 93 929.6
20260506083805 31 89 10.4 13.9 0.00 0.00 0.00 93 929.5
20260506083302 30 79 6.1 7.0 0.00 0.00 0.00 93 929.6
20260506082759 31 107 3.5 7.0 0.00 0.00 0.00 93 929.5
20260506082255 30 143 7.0 11.3 0.00 0.00 0.00 93 929.5
20260506081753 31 95 6.1 11.3 0.00 0.00 0.00 92 929.4
20260506081250 31 96 7.8 15.6 0.00 0.00 0.00 91 929.3
20260506080748 31 112 10.4 15.6 0.00 0.00 0.00 90 929.3
20260506080244 31 107 8.7 13.0 0.00 0.00 0.00 89 928.9
20260506073228 31 111 14.8 20.9 0.00 0.00 0.00 93 928.7
20260506072725 31 114 11.3 21.7 0.00 0.00 0.00 94 928.6
20260506072223 31 105 12.2 19.1 0.00 0.00 0.00 95 928.4
20260506071720 31 72 15.6 21.7 0.00 0.00 0.00 95 928.5
20260506071218 31 104 13.9 26.9 0.00 0.00 0.00 96 928.3
20260506070714 31 103 17.4 23.5 0.00 0.00 0.00 96 928.5
20260506070212 31 103 10.4 13.0 0.00 0.00 0.00 97 928.1
20260506062148 33 68 15.6 26.1 0.00 0.00 0.00 96 927.1
20260506061644 33 69 10.4 22.6 0.00 0.00 0.00 96 927.0
20260506061142 34 103 13.0 19.1 0.00 0.00 0.00 96 927.0
20260506060640 34 93 7.8 20.9 0.00 0.00 0.00 95 926.8
20260506060137 34 69 7.0 21.7 0.00 0.00 0.00 95 926.8
20260506051109 37 80 7.8 13.9 0.00 0.39 0.39 90 926.1
20260506050607 37 53 7.8 25.2 0.00 0.39 0.39 90 925.6
20260506050104 37 85 6.1 14.8 0.00 0.39 0.39 91 925.9
20260506045057 37 56 13.0 20.0 0.00 0.39 0.39 92 925.9
20260506044555 38 67 11.3 19.1 0.00 0.39 0.39 92 925.5
20260506044052 38 71 14.8 20.9 0.00 0.39 0.39 92 925.5
20260506043549 39 58 8.7 22.6 0.00 0.39 0.39 91 925.4
20260506043047 40 85 13.0 20.0 0.00 0.39 0.39 91 925.6
20260506042546 40 75 7.8 15.6 0.00 0.39 0.39 91 925.5
20260506042044 40 63 7.0 14.8 0.00 0.39 0.39 90 925.4
20260506041542 41 85 13.9 15.6 0.00 0.39 0.39 90 925.4
20260506041038 41 84 7.0 11.3 0.00 0.39 0.39 89 925.1
20260506040536 41 79 8.7 13.0 0.00 0.39 0.39 89 924.9
20260506040032 41 47 8.7 11.3 0.00 0.39 0.39 89 925.1
20260506035529 40 87 6.1 11.3 0.00 0.39 0.39 89 925.1
20260506035026 40 96 4.3 7.8 0.00 0.39 0.39 88 924.8
20260506034524 41 66 5.2 8.7 0.00 0.39 0.39 88 924.8
20260506034020 41 70 7.0 12.2 0.00 0.39 0.39 88 924.5
20260506033518 41 73 1.7 12.2 0.00 0.39 0.39 87 924.6
20260506033015 41 67 7.8 13.0 0.00 0.39 0.39 87 924.4
20260506032512 41 52 7.0 14.8 0.00 0.39 0.39 86 924.0
20260506032008 42 51 7.8 9.6 0.00 0.39 0.39 85 924.0
20260506031506 43 48 1.7 4.3 0.00 0.39 0.39 84 923.8
20260506031003 41 71 4.3 6.1 0.00 0.39 0.39 86 923.7
20260506030501 42 71 2.6 6.1 0.00 0.39 0.39 85 923.8
20260506025958 44 50 1.7 2.6 0.00 0.39 0.39 82 923.6
20260506025454 44 94 0.9 1.7 0.00 0.39 0.39 82 923.6
20260506024951 44 197 2.6 4.3 0.00 0.39 0.39 82 923.6
20260506024448 44 140 1.7 2.6 0.00 0.39 0.39 81 923.5
20260506023943 44 87 0.0 1.7 0.00 0.39 0.39 81 923.3
20260506023441 44 83 0.9 2.6 0.00 0.39 0.39 82 923.3
20260506022937 44 81 3.5 4.3 0.00 0.39 0.39 83 923.3
20260506022435 44 46 1.7 1.7 0.00 0.39 0.39 82 923.1
20260506021933 45 144 2.6 4.3 0.00 0.39 0.39 81 923.1
20260506021430 45 69 0.9 0.9 0.00 0.39 0.39 80 923.2
20260506020927 45 21 0.9 1.7 0.00 0.39 0.39 79 923.6
20260506020425 45 25 0.0 1.7 0.00 0.39 0.39 79 923.5
20260506015921 45 90 0.9 1.7 0.00 0.39 0.39 79 923.5
20260506015419 46 77 0.0 1.7 0.00 0.39 0.39 78 923.3
20260506014916 46 47 0.0 0.9 0.00 0.39 0.39 78 923.5
20260506014413 46 16 0.9 1.7 0.00 0.39 0.39 77 923.6
20260506013909 47 18 1.7 2.6 0.00 0.39 0.39 76 923.1
20260506013408 48 5 0.9 1.7 0.00 0.39 0.39 75 923.5
20260506012903 47 251 0.9 5.2 0.00 0.39 0.39 76 923.5
20260506012400 48 180 1.7 2.6 0.00 0.39 0.39 74 923.6
20260506011857 48 226 6.1 9.6 0.00 0.39 0.39 74 923.5
20260506011354 48 228 7.0 8.7 0.00 0.39 0.39 74 923.2
20260506010851 49 255 4.3 5.2 0.00 0.39 0.39 75 923.9
20260506010350 49 243 3.5 5.2 0.00 0.39 0.39 76 923.9
20260506005846 49 219 3.5 6.1 0.00 0.39 0.39 79 923.5
20260506005343 48 173 2.6 5.2 0.00 0.39 0.39 80 923.7
20260506004838 48 151 2.6 4.3 0.00 0.39 0.39 79 923.5
20260506004337 47 105 0.9 2.6 0.00 0.39 0.39 81 923.6
20260506003833 47 203 2.6 4.3 0.00 0.39 0.39 82 923.5
20260506003329 47 219 0.9 2.6 0.00 0.39 0.39 84 923.6
20260506002825 47 117 3.5 4.3 0.00 0.39 0.39 82 923.7
20260506002322 47 93 0.0 1.7 0.00 0.39 0.39 82 923.7
20260506001817 47 64 0.0 1.7 0.00 0.39 0.39 82 923.2
20260506001315 47 115 0.9 4.3 0.07 0.39 0.39 81 923.6
20260506000812 47 7 1.7 2.6 0.07 0.39 0.39 79 923.3
20260506000310 47 11 0.9 2.6 0.05 0.38 0.38 79 923.5
20260505235806 48 205 5.2 9.6 0.12 0.38 0.38 82 923.7
20260505235305 49 174 4.3 6.1 0.07 0.37 0.37 81 923.6
20260505234800 50 148 0.9 7.8 0.00 0.36 0.36 78 923.5
20260505234258 49 314 3.5 6.1 0.00 0.36 0.36 72 923.5
20260505233755 50 217 5.2 11.3 0.00 0.36 0.36 75 923.5
20260505233253 50 243 5.2 6.1 0.00 0.36 0.36 74 923.8
20260505232750 50 254 5.2 7.0 0.00 0.36 0.36 74 923.6
20260505232247 50 210 4.3 7.0 0.00 0.36 0.36 73 923.8
20260505231743 50 245 3.5 8.7 0.00 0.36 0.36 73 923.7
20260505231242 50 255 6.1 7.8 0.00 0.36 0.36 72 923.8
20260505230740 51 274 4.3 7.0 0.00 0.36 0.36 71 924.0
20260505230237 51 283 6.1 8.7 0.00 0.36 0.36 72 923.9
20260505225733 50 223 4.3 6.1 0.00 0.36 0.36 73 923.9
20260505225230 50 226 5.2 6.1 0.00 0.36 0.36 73 924.1
20260505224725 50 0 3.5 6.1 0.00 0.36 0.36 73 924.1
20260505224224 49 188 3.5 11.3 0.00 0.36 0.36 74 924.4
20260505223721 49 234 5.2 7.0 0.00 0.36 0.36 73 924.3
20260505223217 49 218 2.6 8.7 0.00 0.36 0.36 74 924.3
20260505222713 48 200 3.5 5.2 0.00 0.36 0.36 75 924.4
20260505222209 48 230 4.3 6.1 0.00 0.36 0.36 76 924.3
20260505221707 48 245 4.3 7.0 0.00 0.36 0.36 76 924.3
20260505221203 48 250 3.5 7.8 0.00 0.36 0.36 76 924.6
20260505220700 49 259 3.5 6.1 0.00 0.36 0.36 75 924.3
20260505220158 48 275 2.6 7.0 0.00 0.36 0.36 74 924.8
20260505215655 49 236 4.3 8.7 0.00 0.36 0.36 73 924.6
20260505215153 48 272 3.5 7.8 0.00 0.36 0.36 76 924.7
20260505214651 48 219 2.6 5.2 0.00 0.36 0.36 77 924.8
20260505214148 48 347 2.6 4.3 0.00 0.36 0.36 77 924.6
20260505213645 47 250 0.9 4.3 0.00 0.36 0.36 77 924.8
20260505213142 47 335 2.6 5.2 0.00 0.36 0.36 77 924.7
20260505212638 48 315 1.7 2.6 0.00 0.36 0.36 76 924.8
20260505212136 47 226 2.6 6.1 0.00 0.36 0.36 75 924.8
20260505211632 47 199 2.6 5.2 0.00 0.36 0.36 77 924.9
20260505211130 46 120 1.7 4.3 0.00 0.36 0.36 78 924.7
20260505210626 46 208 2.6 6.1 0.00 0.36 0.36 78 924.6
20260505210123 46 216 2.6 4.3 0.00 0.36 0.36 78 924.8
20260505205621 46 227 2.6 6.1 0.00 0.36 0.36 77 925.1
20260505205119 45 337 5.2 7.0 0.00 0.36 0.36 78 925.1
20260505204615 45 182 2.6 4.3 0.00 0.36 0.36 81 925.3
20260505204113 44 333 3.5 5.2 0.00 0.36 0.36 85 925.2
20260505203609 43 273 4.3 5.2 0.00 0.36 0.36 87 925.2
20260505203107 43 169 2.6 2.6 0.00 0.36 0.36 89 925.4
20260505202602 42 311 1.7 5.2 0.00 0.36 0.36 91 925.7
20260505202058 41 337 1.7 5.2 0.00 0.36 0.36 92 925.4
20260505201555 41 238 2.6 5.2 0.00 0.36 0.36 92 925.4
20260505201053 42 27 0.9 1.7 0.00 0.36 0.36 93 925.4
20260505200550 41 300 1.7 2.6 0.00 0.36 0.36 93 925.3
20260505200047 42 261 0.9 4.3 0.00 0.36 0.36 92 925.3
20260505195543 42 192 2.6 5.2 0.00 0.36 0.36 92 925.6
20260505195041 42 22 0.0 0.0 0.00 0.36 0.36 93 925.4
20260505194538 42 329 0.9 1.7 0.00 0.36 0.36 93 925.2
20260505194033 42 89 2.6 2.6 0.00 0.36 0.36 93 925.2
20260505193531 41 147 3.5 6.1 0.00 0.36 0.36 94 925.2
20260505193028 41 93 1.7 2.6 0.00 0.36 0.36 94 925.1
20260505192526 40 167 1.7 4.3 0.07 0.36 0.36 95 925.4
20260505192024 40 127 2.6 5.2 0.12 0.36 0.36 95 925.4
20260505191522 40 122 2.6 2.6 0.12 0.35 0.35 95 925.5
20260505191020 39 87 1.7 2.6 0.19 0.34 0.34 95 925.5
20260505190514 39 61 0.9 2.6 0.24 0.33 0.33 95 925.7
20260505190010 40 80 0.9 1.7 0.24 0.31 0.31 96 925.6
20260505185507 39 76 0.0 0.0 0.24 0.29 0.29 96 925.9
20260505185003 38 37 0.0 0.0 0.26 0.26 0.26 96 925.3
20260505184500 38 39 0.0 0.0 0.31 0.24 0.24 96 925.6
20260505183957 38 49 0.0 0.0 0.19 0.21 0.21 96 925.6
20260505183454 37 46 0.0 0.0 0.19 0.19 0.19 96 925.7
20260505182950 37 53 0.0 0.0 0.19 0.17 0.17 96 925.4
20260505182447 37 50 0.0 0.0 0.17 0.16 0.16 96 925.5